FLOCK 2K-33 (42879 NORAD) Tracking and Keplerian Element Data

This shows tracking and keplerian element data for the satellite.

Feedback or suggestion? Click here.




ElementValue
Catalog42879
NameFLOCK 2K-33
Epoch Orbit3283
Epoch Day45.68872925
Epoch Year2018
RAAN308.5181
Inclination96.9929
Eccentricity0.0012374
Argument of Perigee176.6459
Mean Anonmoly183.4871
Mean Motion15.35592273
Decay Rate5.802E-05
L11 42879U 17042BG 18045.68872925 .00005802 00000-0 16949-3 0 9996
L22 42879 96.9929 308.5181 0012374 176.6459 183.4871 15.35592273 32837

Live tracking and technical data element details for FLOCK 2K-33 (NORAD 42879). FLOCK 2K-33 can be tracked NOW for your location showing map with azimuth and elevation plus other details from your city location.

Track the satellite on the map from your city or location and see movement details for azimuth, elevation, latitude, longitude, range, height, and movement on the map or in text.







IsCatalogInMostPopularTable: catalog: 42879, numindb: 141
Update: records affected: 1



GetName: 42879 FLOCK 2K-33

Hit Count: updated at: Sun, 16 Dec 2018 10:31:17 GMT